GW0774 Weather Reports


time (UTC)temp
C
wind
direction
speed
KPH
gust
KPH
rain 1hr
cm
rain 24hr
cm
rain mn
cm
humidity
%
barometer
mb
20260510031038 16 278 19.3 40.2 0.00 0.00 0.00 84 998.8
20260510030538 16 251 14.5 40.2 0.00 0.00 0.00 84 998.8
20260510030100 16 271 16.1 29.0 0.00 0.00 0.00 83 998.7
20260510025539 16 252 16.1 29.0 0.00 0.00 0.00 83 998.9
20260510025039 16 265 14.5 27.4 0.00 0.00 0.00 85 998.9
20260510024547 16 260 19.3 27.4 0.00 0.00 0.00 83 998.9
20260510024039 16 269 14.5 32.2 0.00 0.00 0.00 84 998.7
20260510023539 16 245 16.1 37.0 0.00 0.00 0.00 84 998.6
20260510023047 16 228 19.3 38.6 0.00 0.00 0.00 83 998.5
20260510022542 16 338 17.7 40.2 0.00 0.00 0.00 83 998.5
20260510022039 16 299 22.5 43.5 0.00 0.00 0.00 81 998.5
20260510021545 16 295 24.1 43.5 0.00 0.00 0.00 82 998.4
20260510021039 16 305 16.1 48.3 0.00 0.00 0.00 84 998.3
20260510020542 16 259 24.1 48.3 0.00 0.00 0.00 83 998.1
20260510020051 16 311 19.3 37.0 0.00 0.00 0.00 84 998.1
20260510015538 16 234 19.3 37.0 0.00 0.51 0.00 83 998.1
20260510015039 16 242 20.9 37.0 0.00 0.51 0.00 82 998.1
20260510014547 16 336 22.5 40.2 0.00 0.51 0.00 82 998.0
20260510014039 16 252 20.9 40.2 0.00 0.51 0.00 82 997.9
20260510013540 16 259 22.5 40.2 0.00 0.51 0.00 80 997.9
20260510013046 16 241 17.7 54.7 0.00 0.51 0.00 83 998.3
20260510012542 16 271 20.9 54.7 0.00 0.51 0.00 82 998.2
20260510012039 16 327 17.7 40.2 0.00 0.51 0.00 82 998.2
20260510011550 16 255 22.5 40.2 0.00 0.51 0.00 82 998.3
20260510011039 16 249 25.7 41.8 0.00 0.51 0.00 81 998.2
20260510010539 16 248 17.7 41.8 0.00 0.51 0.00 81 998.1
20260510010044 16 280 22.5 43.5 0.00 0.51 0.00 80 998.1
20260510005539 16 244 22.5 43.5 0.00 0.53 0.00 80 998.1
20260510005039 16 255 19.3 45.1 0.00 0.53 0.00 80 998.2
20260510004552 16 234 20.9 46.7 0.00 0.53 0.00 82 998.2
20260510004039 16 294 20.9 46.7 0.00 0.53 0.00 82 998.1
20260510003540 16 279 24.1 40.2 0.00 0.53 0.00 82 998.3
20260510003047 16 287 19.3 40.2 0.00 0.53 0.00 83 998.3
20260510002538 16 275 16.1 40.2 0.00 0.53 0.00 84 998.3
20260510002039 16 254 22.5 41.8 0.00 0.53 0.00 83 998.3
20260510001556 16 262 27.4 41.8 0.00 0.53 0.00 82 998.4
20260510001039 16 288 17.7 32.2 0.00 0.53 0.00 82 998.6
20260510000541 16 294 16.1 41.8 0.00 0.53 0.00 82 998.7
20260510000048 16 285 24.1 41.8 0.00 0.53 0.00 82 998.7
20260509235539 16 274 17.7 35.4 0.00 0.53 0.00 82 998.7
20260509235039 16 221 22.5 40.2 0.00 0.53 0.00 82 998.7
20260509234549 16 269 20.9 40.2 0.00 0.53 0.00 83 998.8
20260509234043 16 254 16.1 38.6 0.00 0.53 0.00 83 998.6
20260509233544 16 286 19.3 45.1 0.00 0.53 0.00 83 998.9
20260509233049 16 290 20.9 45.1 0.00 0.53 0.00 84 999.1
20260509232542 16 283 20.9 43.5 0.00 0.53 0.00 84 999.1
20260509232039 16 261 22.5 43.5 0.00 0.53 0.00 83 999.2
20260509231548 16 267 17.7 40.2 0.00 0.53 0.00 82 999.2
20260509231038 16 290 12.9 41.8 0.00 0.53 0.00 83 999.1
20260509230539 16 276 16.1 41.8 0.00 0.53 0.00 83 999.2
20260509230055 16 259 20.9 40.2 0.00 0.53 0.00 82 999.2
20260509225539 16 324 16.1 32.2 0.00 0.53 0.00 84 999.3
20260509225040 16 244 16.1 40.2 0.00 0.53 0.00 84 999.3
20260509224547 16 287 20.9 48.3 0.00 0.53 0.00 84 999.2
20260509224041 16 286 24.1 48.3 0.00 0.53 0.00 83 999.2
20260509223539 16 340 19.3 48.3 0.00 0.53 0.00 84 999.1
20260509223045 16 229 20.9 43.5 0.00 0.53 0.00 83 999.1
20260509222541 16 275 17.7 43.5 0.00 0.53 0.00 84 999.1
20260509222039 16 296 22.5 41.8 0.00 0.53 0.00 84 999.1
20260509221551 16 290 19.3 41.8 0.00 0.53 0.00 84 999.2
20260509221047 15 292 19.3 41.8 0.00 0.53 0.00 84 999.1
20260509220540 16 252 20.9 37.0 0.00 0.53 0.00 84 999.2
20260509220048 15 259 17.7 37.0 0.00 0.53 0.00 84 999.2
20260509215539 15 306 20.9 37.0 0.00 0.53 0.00 85 999.2
20260509215039 15 247 19.3 37.0 0.00 0.53 0.00 86 999.1
20260509214548 15 264 17.7 38.6 0.00 0.53 0.00 85 999.2
20260509214038 15 252 20.9 38.6 0.00 0.53 0.00 85 999.2
20260509213538 15 293 19.3 33.8 0.00 0.53 0.00 85 999.2
20260509213106 15 261 12.9 25.7 0.00 0.53 0.00 86 999.2
20260509212538 15 277 14.5 32.2 0.00 0.53 0.00 86 999.3
20260509212039 15 143 12.9 32.2 0.00 0.53 0.00 86 999.2
20260509211549 15 258 19.3 29.0 0.00 0.53 0.00 87 999.3
20260509211042 15 286 16.1 30.6 0.00 0.53 0.00 87 999.3
20260509210540 15 265 16.1 30.6 0.00 0.51 0.00 88 999.3
20260509205539 14 285 11.3 25.7 0.00 0.51 0.00 88 999.2
20260509205039 14 270 12.9 24.1 0.00 0.51 0.00 88 999.3
20260509204553 14 262 12.9 30.6 0.00 0.51 0.00 88 999.3
20260509204039 14 266 11.3 30.6 0.00 0.51 0.00 88 999.2
20260509203539 14 300 11.3 30.6 0.00 0.51 0.00 89 999.2
20260509203049 14 248 9.7 30.6 0.00 0.51 0.00 89 999.2
20260509202539 14 298 20.9 32.2 0.00 0.51 0.00 89 999.1
20260509202039 13 288 14.5 32.2 0.00 0.51 0.00 90 999.2
20260509201550 14 290 17.7 32.2 0.00 0.51 0.00 90 999.1
20260509201038 13 252 16.1 30.6 0.00 0.51 0.00 90 998.9
20260509200540 13 267 12.9 27.4 0.00 0.51 0.00 89 998.9
20260509200103 14 296 14.5 27.4 0.00 0.51 0.00 87 998.9
20260509195539 14 285 12.9 24.1 0.00 0.51 0.00 86 998.8
20260509195043 14 323 14.5 29.0 0.00 0.51 0.00 87 998.8
20260509194549 14 313 14.5 29.0 0.00 0.51 0.00 86 998.7
20260509194039 14 265 16.1 29.0 0.00 0.51 0.00 86 998.6
20260509193543 14 283 14.5 27.4 0.00 0.51 0.00 86 998.7
20260509193053 13 281 12.9 25.7 0.00 0.51 0.00 86 998.8
20260509192542 13 293 11.3 32.2 0.00 0.51 0.00 86 998.7
20260509192039 14 282 14.5 33.8 0.00 0.51 0.00 86 998.6
20260509191549 14 304 19.3 33.8 0.00 0.51 0.00 85 998.3
20260509191041 14 267 17.7 33.8 0.00 0.51 0.00 86 998.5
20260509190539 14 234 12.9 27.4 0.00 0.51 0.00 85 998.3
20260509190047 14 316 16.1 32.2 0.00 0.51 0.00 84 998.3
20260509185539 14 277 17.7 32.2 0.00 0.51 0.00 84 998.3
20260509185040 14 277 19.3 40.2 0.00 0.51 0.00 83 998.2
20260509184554 14 273 19.3 40.2 0.00 0.51 0.00 84 998.3
20260509184039 14 278 16.1 30.6 0.00 0.51 0.00 84 998.2
20260509183539 14 282 17.7 30.6 0.00 0.51 0.00 85 998.2
20260509183048 13 281 19.3 30.6 0.00 0.51 0.00 86 998.3
20260509182537 13 300 17.7 30.6 0.00 0.51 0.00 86 998.3
20260509182036 13 274 14.5 24.1 0.00 0.51 0.00 86 998.2
20260509181557 13 314 12.9 19.3 0.00 0.51 0.00 88 998.3
20260509181041 12 256 6.4 16.1 0.00 0.51 0.00 91 998.4
20260509180540 12 277 1.6 14.5 0.00 0.51 0.00 91 998.4
20260509180048 12 284 6.4 14.5 0.00 0.51 0.00 91 998.4
20260509175539 12 257 1.6 12.9 0.00 0.53 0.00 91 998.4
20260509175039 12 268 1.6 12.9 0.00 0.53 0.00 91 998.3
20260509174547 12 265 8.0 12.9 0.00 0.53 0.00 91 998.4
20260509174038 12 309 3.2 12.9 0.00 0.53 0.00 91 998.6
20260509173538 12 255 1.6 12.9 0.00 0.53 0.00 91 998.6
20260509173049 12 243 3.2 17.7 0.00 0.53 0.00 91 998.6
20260509172539 12 253 3.2 17.7 0.00 0.53 0.00 91 998.7
20260509172039 12 0 0.0 9.7 0.00 0.53 0.00 91 998.7
20260509171549 12 277 3.2 9.7 0.00 0.53 0.00 91 998.6
20260509171039 12 281 3.2 11.3 0.00 0.53 0.00 90 998.6
20260509170540 12 274 1.6 12.9 0.00 0.53 0.00 90 998.5
20260509170050 12 264 1.6 12.9 0.00 0.53 0.00 90 998.5
20260509165541 12 273 1.6 11.3 0.00 0.53 0.00 90 998.4
20260509165039 12 273 3.2 11.3 0.00 0.53 0.00 91 998.5
20260509164545 12 275 0.0 6.4 0.00 0.53 0.00 91 998.4
20260509164039 12 275 1.6 6.4 0.00 0.53 0.00 91 998.4
20260509163539 12 271 1.6 6.4 0.00 0.53 0.00 91 998.5
20260509163050 12 271 3.2 6.4 0.00 0.53 0.00 91 998.6
20260509162540 12 271 1.6 12.9 0.00 0.53 0.00 91 998.6
20260509162040 12 292 1.6 12.9 0.00 0.53 0.00 91 998.6
20260509161547 12 264 3.2 12.9 0.00 0.53 0.00 91 998.7
20260509161039 12 259 3.2 11.3 0.00 0.53 0.00 91 998.6
20260509160539 12 284 3.2 9.7 0.00 0.53 0.00 91 998.7
20260509160048 12 244 1.6 8.0 0.00 0.53 0.00 91 998.7
20260509155539 12 263 1.6 12.9 0.00 0.53 0.00 91 998.8
20260509155039 12 279 3.2 12.9 0.00 0.53 0.00 91 998.7
20260509154549 12 266 3.2 9.7 0.00 0.53 0.00 91 998.9
20260509154043 12 54 1.6 14.5 0.00 0.53 0.00 91 998.9
20260509153539 12 277 4.8 14.5 0.00 0.53 0.00 91 998.9
20260509153059 12 265 8.0 14.5 0.00 0.53 0.00 91 999.0
20260509152539 12 263 3.2 11.3 0.00 0.53 0.00 91 999.0
20260509152039 12 251 1.6 11.3 0.00 0.53 0.00 91 999.0
20260509151554 12 310 1.6 12.9 0.00 0.53 0.00 91 999.0
20260509151039 12 284 4.8 14.5 0.00 0.53 0.00 91 999.0
20260509150539 12 288 3.2 14.5 0.00 0.53 0.00 91 999.2
20260509150049 12 227 3.2 14.5 0.00 0.53 0.00 91 999.2
20260509145540 12 264 0.0 9.7 0.00 0.53 0.00 90 999.2
20260509145040 12 263 0.0 9.7 0.00 0.53 0.00 90 999.3
20260509144552 12 263 4.8 9.7 0.00 0.53 0.00 90 999.3
20260509144039 12 263 1.6 6.4 0.00 0.53 0.00 90 999.4
20260509143545 12 263 1.6 6.4 0.00 0.53 0.00 90 999.3
20260509143049 12 263 1.6 6.4 0.00 0.53 0.00 89 999.3
20260509142539 12 263 3.2 6.4 0.00 0.53 0.00 89 999.4
20260509142039 12 263 1.6 6.4 0.00 0.53 0.00 87 999.4
20260509141546 12 263 1.6 6.4 0.00 0.53 0.00 86 999.4
20260509141040 13 263 1.6 22.5 0.00 0.53 0.00 85 999.4
20260509140539 13 0 8.0 22.5 0.00 0.53 0.00 85 999.4
20260509140051 13 279 12.9 27.4 0.00 0.53 0.00 85 999.4
20260509135539 13 278 14.5 27.4 0.00 0.53 0.00 85 999.4
20260509135036 13 307 12.9 27.4 0.00 0.53 0.00 85 999.3
20260509134542 13 260 14.5 27.4 0.00 0.53 0.00 85 999.3
20260509134034 13 272 12.9 25.7 0.00 0.53 0.00 86 999.3
20260509133538 13 304 9.7 20.9 0.00 0.53 0.00 86 999.5
20260509133048 13 298 8.0 20.9 0.00 0.53 0.00 85 999.4
20260509132539 13 290 9.7 20.9 0.00 0.53 0.00 85 999.2
20260509132035 13 256 11.3 29.0 0.00 0.53 0.00 84 999.1
20260509131549 13 256 11.3 29.0 0.00 0.53 0.00 83 999.3
20260509131035 13 269 14.5 30.6 0.00 0.53 0.00 83 999.3
20260509130535 13 288 17.7 32.2 0.00 0.53 0.00 83 999.3
20260509130047 13 277 20.9 33.8 0.00 0.53 0.00 82 999.2
20260509125542 13 259 20.9 33.8 0.00 0.64 0.00 82 999.3
20260509125038 13 245 12.9 29.0 0.00 0.64 0.00 84 999.4
20260509124545 13 314 9.7 25.7 0.00 0.64 0.00 83 999.3
20260509124038 13 256 11.3 27.4 0.00 0.64 0.00 83 999.4
20260509123535 13 277 14.5 29.0 0.00 0.64 0.00 83 999.4
20260509123050 13 266 14.5 29.0 0.00 0.64 0.00 82 999.3
20260509122536 13 331 12.9 25.7 0.00 0.64 0.00 82 999.3
20260509122036 13 254 14.5 22.5 0.00 0.64 0.00 82 999.2
20260509121547 13 281 12.9 22.5 0.00 0.64 0.00 82 999.2
20260509121036 13 272 11.3 22.5 0.00 0.64 0.00 82 999.2
20260509120536 13 246 9.7 22.5 0.00 0.64 0.00 82 999.4
20260509120058 13 283 9.7 27.4 0.00 0.64 0.00 81 999.5
20260509115535 13 253 12.9 27.4 0.00 0.99 0.64 81 999.4
20260509115035 13 265 11.3 27.4 0.00 0.99 0.64 81 999.5
20260509114543 13 250 12.9 25.7 0.00 0.99 0.64 81 999.6
20260509114037 13 281 8.0 29.0 0.00 0.99 0.64 81 999.6
20260509113534 13 300 12.9 29.0 0.00 0.99 0.64 81 999.5
20260509113053 13 281 11.3 29.0 0.00 0.99 0.64 81 999.6
20260509112538 13 294 11.3 22.5 0.00 0.99 0.64 81 999.6
20260509112036 13 339 12.9 20.9 0.00 0.99 0.64 80 999.6
20260509111542 13 293 11.3 20.9 0.00 0.99 0.64 80 999.6
20260509111036 13 242 12.9 20.9 0.00 0.99 0.64 81 999.6
20260509110538 13 259 9.7 20.9 0.00 0.99 0.64 81 999.6
20260509110053 13 252 9.7 22.5 0.00 0.99 0.64 81 999.7
20260509105535 13 275 12.9 27.4 0.00 1.02 0.64 81 999.8
20260509105035 13 291 11.3 27.4 0.00 1.02 0.64 81 999.7
20260509104547 13 269 9.7 24.1 0.00 1.02 0.64 82 999.8
20260509104035 13 250 11.3 29.0 0.00 1.02 0.64 81 999.7
20260509103538 13 254 12.9 29.0 0.00 1.02 0.64 81 999.6
20260509103048 13 294 11.3 29.0 0.00 1.02 0.64 81 999.6
20260509102538 13 265 9.7 24.1 0.00 1.02 0.64 81 999.7
20260509102040 13 277 12.9 27.4 0.00 1.02 0.64 81 999.7
20260509101553 13 294 14.5 29.0 0.00 1.02 0.64 80 999.6
20260509101039 13 259 16.1 29.0 0.00 1.02 0.64 81 999.7
20260509100540 13 279 11.3 22.5 0.00 1.02 0.64 81 999.7
20260509100045 13 304 9.7 20.9 0.00 1.02 0.64 81 999.6
20260509095540 13 265 8.0 24.1 0.00 1.12 0.64 80 999.7
20260509095039 13 264 9.7 24.1 0.00 1.12 0.64 80 999.7
20260509094548 13 290 12.9 22.5 0.00 1.12 0.64 79 999.7
20260509094039 13 271 11.3 25.7 0.00 1.12 0.64 80 999.8
20260509093539 13 254 11.3 25.7 0.00 1.12 0.64 81 999.8
20260509093053 13 269 12.9 25.7 0.00 1.12 0.64 81 999.6
20260509092538 13 243 11.3 22.5 0.00 1.12 0.64 82 999.5
20260509092043 13 268 8.0 22.5 0.00 1.12 0.64 82 999.5
20260509091602 13 290 8.0 27.4 0.00 1.12 0.64 82 999.6
20260509091039 13 250 11.3 27.4 0.00 1.12 0.64 82 999.5
20260509090540 13 242 8.0 20.9 0.00 1.12 0.64 83 999.4
20260509090047 13 260 11.3 22.5 0.00 1.12 0.64 82 999.3
20260509085538 13 256 11.3 22.5 0.00 1.12 0.64 82 999.4
20260509085042 13 257 11.3 24.1 0.00 1.12 0.64 82 999.4
20260509084545 13 250 12.9 24.1 0.00 1.12 0.64 81 999.5
20260509084039 13 249 14.5 22.5 0.00 1.12 0.64 81 999.5
20260509083538 13 241 9.7 24.1 0.00 1.12 0.64 81 999.4
20260509083044 13 254 9.7 25.7 0.00 1.12 0.64 81 999.2
20260509082539 13 281 12.9 25.7 0.00 1.12 0.64 81 999.1
20260509082042 13 284 12.9 29.0 0.00 1.12 0.64 81 999.1
20260509081551 13 277 16.1 29.0 0.00 1.12 0.64 81 999.2
20260509081039 13 277 16.1 27.4 0.00 1.12 0.64 81 999.1
20260509080538 13 284 17.7 27.4 0.00 1.12 0.64 81 999.0
20260509080057 13 290 16.1 25.7 0.00 1.12 0.64 81 999.1
20260509075542 13 323 12.9 22.5 0.00 1.12 0.64 82 999.1
20260509075042 13 298 14.5 27.4 0.00 1.12 0.64 81 999.3
20260509074552 13 289 17.7 27.4 0.00 1.12 0.64 81 999.4
20260509074040 13 288 17.7 27.4 0.00 1.12 0.64 81 999.3
20260509073539 13 290 17.7 27.4 0.00 1.12 0.64 82 999.2
20260509073122 13 298 11.3 20.9 0.00 1.12 0.64 83 999.3
20260509072542 13 251 9.7 17.7 0.00 1.12 0.64 83 999.2
20260509072038 13 249 8.0 17.7 0.00 1.12 0.64 83 999.3
20260509071549 13 263 8.0 17.7 0.00 1.12 0.64 82 999.4
20260509071039 13 240 9.7 17.7 0.00 1.12 0.64 83 999.4
20260509070541 13 264 8.0 22.5 0.00 1.12 0.64 83 999.4
20260509070055 13 267 9.7 22.5 0.00 1.12 0.64 83 999.5
20260509065538 13 252 9.7 20.9 0.00 1.12 0.64 83 999.5
20260509065038 13 281 11.3 20.9 0.00 1.12 0.64 84 999.5
20260509064548 13 252 6.4 20.9 0.00 1.12 0.64 83 999.5
20260509064044 13 297 8.0 19.3 0.00 1.12 0.64 83 999.6
20260509063539 13 252 8.0 20.9 0.00 1.12 0.64 82 999.6
20260509063059 13 252 11.3 20.9 0.00 1.12 0.64 82 999.5
20260509062539 13 300 9.7 32.2 0.00 1.12 0.64 81 999.5
20260509062038 14 253 11.3 32.2 0.00 1.12 0.64 79 999.6
20260509061556 14 265 12.9 29.0 0.00 1.12 0.64 80 999.5
20260509061039 14 299 14.5 29.0 0.00 1.12 0.64 81 999.5
20260509060539 14 251 11.3 24.1 0.00 1.12 0.64 81 999.6
20260509055538 14 245 14.5 27.4 0.00 1.12 0.64 82 999.6
20260509055041 15 242 12.9 30.6 0.00 1.12 0.64 83 999.7
20260509054607 15 240 16.1 30.6 0.00 1.12 0.64 83 999.6
20260509054038 15 263 14.5 27.4 0.00 1.12 0.64 84 999.6
20260509053540 15 296 16.1 27.4 0.00 1.12 0.64 84 999.5
20260509053049 15 269 12.9 25.7 0.00 1.12 0.64 85 999.5
20260509052538 15 262 12.9 25.7 0.00 1.12 0.64 85 999.4
20260509052039 15 250 14.5 27.4 0.00 1.12 0.64 85 999.3
20260509051548 15 245 12.9 27.4 0.00 1.12 0.64 86 999.3
20260509051041 15 252 14.5 24.1 0.00 1.12 0.64 86 999.2
20260509050538 15 263 12.9 24.1 0.00 1.12 0.64 87 999.3
20260509050044 15 286 12.9 25.7 0.00 1.12 0.64 88 999.2
20260509045539 15 251 12.9 27.4 0.00 1.12 0.64 87 999.1
20260509045039 15 261 14.5 29.0 0.00 1.12 0.64 87 999.1
20260509044550 15 253 14.5 29.0 0.00 1.12 0.64 87 999.1
20260509044038 15 269 12.9 25.7 0.00 1.12 0.64 88 999.1
20260509043539 15 258 12.9 25.7 0.00 1.12 0.64 88 999.2
20260509043053 15 238 12.9 30.6 0.00 1.12 0.64 88 999.3
20260509042541 15 248 16.1 30.6 0.00 1.12 0.64 87 999.1
20260509042038 15 249 16.1 30.6 0.00 1.12 0.64 87 999.2
20260509041551 15 267 12.9 29.0 0.00 1.12 0.64 86 999.2
20260509041041 15 273 12.9 29.0 0.00 1.12 0.64 86 999.2
20260509040539 15 274 14.5 29.0 0.00 1.12 0.64 86 999.4
20260509040121 16 316 12.9 29.0 0.00 1.12 0.64 88 999.3
20260509035539 15 275 14.5 29.0 0.00 1.12 0.64 87 999.5
20260509035039 15 301 16.1 32.2 0.00 1.12 0.64 86 999.5
20260509034555 15 242 12.9 32.2 0.00 1.12 0.64 86 999.6
20260509034038 15 259 17.7 32.2 0.00 1.12 0.64 85 999.4
20260509033539 15 238 17.7 37.0 0.00 1.12 0.64 86 999.3
20260509033049 15 281 19.3 37.0 0.00 1.12 0.64 86 999.3
20260509032540 16 278 14.5 41.8 0.00 1.12 0.64 87 999.2
20260509032045 16 241 17.7 41.8 0.00 1.12 0.64 86 999.2
20260509031549 16 275 11.3 38.6 0.00 1.12 0.64 87 999.3